DELTA 2 R/B

Last updated on Fri Nov 07 2025 00:02:16 GMT+0000 (Coordinated Universal Time)

1 25876U 99041E 25310.10142391 .00001078 00000+0 21261-3 0 9993 2 25876 51.7631 74.6810 0504765 343.7990 14.7299 14.11267862345575
UTC large
Height (km)
Speed (km/s)
/
Latitude / Longitude
Inclination (degrees)
Orbital Period (minutes)
Azimuth
Elevation
Range (km)
Doppler Factor

Next 0 passes for location: London (51.5072 / 0.1276)

Sorry there are no passes over London.